Regional Weather Roundup
Issued by NWS Sterling, VA

Home | Current Version | Previous Version | Graphics & Text | Print | Product List | Glossary On
Versions: 1 2 3 4 5 6 7 8 9 10 11 12 13 14 15 16 17 18 19 20 21 22 23 24 25 26 27 28 29 30 31 32 33 34 35 36 37 38 39 40 41 42 43 44 45 46 47 48 49 50
000
ASUS41 KLWX 310410
RWRLWX

REGIONAL WEATHER ROUNDUP
NATIONAL WEATHER SERVICE BALTIMORE MD/WASHINGTON DC
1100 PM EST FRI JAN 30 2015

Note: "FAIR" indicates few or no clouds below 12,000 feet
with no significant weather and/or obstructions to visibility.
 TC=TEMPERATURE CELSIUS

 * =Non NWS site. Station does not report precipitation (e.g. rain,
    snow, etc.), thunder, or fog.

DCZ001-MDZ009-015-VAZ040>042-051-053>054-310500-
WASHINGTON METRO

CITY           SKY/WX    TMP DP  RH WIND       PRES   REMARKS
WASHINGTON NAT CLEAR     24   4  42 NW15G31   30.27R WCI  11
DULLES         FAIR      20   4  50 NW17G30   30.27R WCI   5
ANDREWS AFB    CLEAR     21   4  47 NW22G33   30.22S WCI   5
FT BELVOIR     CLEAR     22   3  44 NW10G29   30.28S WCI  11
QUANTICO       CLEAR     23   5  46 N10       30.30S WCI  12
COLLEGE PARK*  CLEAR     23   7  50 NW15G24   30.25S WCI  10
LEESBURG*      CLEAR     21  10  63 NW18G25   30.28R WCI   6
MANASSAS*      CLEAR     21   9  58 NW12G24   30.28S WCI   9
GAITHERSBURG*  CLEAR     18   3  53 NW13G23   30.27R WCI   4

$$

MDZ006>007-011-014-310500-
BALTIMORE METRO

CITY           SKY/WX    TMP DP  RH WIND       PRES   REMARKS
BWI AIRPORT    CLEAR     21   4  47 NW16G28   30.22R WCI   7
MD SCIENCE CTR   N/A     22   3  44 MISG      30.23R
MARTIN STATE   CLEAR     23   9  54 W16G31    30.23S WCI  10
ANNAPOLIS      CLEAR     24   8  50 NW18G29   30.21F WCI  10
FORT MEADE*    CLEAR     21   9  58 NW13G21   30.26R WCI   9

$$

MDZ012-015-019>023-310500-
MARYLAND EASTERN SHORE

CITY           SKY/WX    TMP DP  RH WIND       PRES   REMARKS
OCEAN CITY     CLEAR     25  10  53 NW18G32   30.13R WCI  11
SALISBURY      CLEAR     27   9  46 NW20G30   30.16R WCI  13
BAY BRIDGE AP*   N/A     25   9  50 NW22G30   30.22S WCI  10
CAMBRIDGE*     CLEAR     28   9  43 NW18G31   30.19S WCI  16
EASTON*        CLEAR     26  10  51 NW20G32   30.23S WCI  12

$$

MDZ017>025-310500-
SOUTHERN MARYLAND

CITY           SKY/WX    TMP DP  RH WIND       PRES   REMARKS
PATUXENT RIVER CLEAR     24   7  48 NW26G40   30.21R WCI   8
ST INIGOES     CLEAR     24   6  46 NW15G31   30.22R WCI  11
LEONARDTOWN*   CLEAR     23   5  46 W13G18    30.24S WCI  11

$$

MDZ003>005-310500-
NORTH CENTRAL MARYLAND

CITY           SKY/WX    TMP DP  RH WIND       PRES   REMARKS
FREDERICK*     CLEAR     23   5  46 NW12      30.30R WCI  12
HAGERSTOWN APT CLEAR     18   4  54 NW25G37   30.25S WCI   0
WESTMINSTER*   NOT AVBL

$$

MDZ501>502-310500-
WESTERN MARYLAND

CITY           SKY/WX    TMP DP  RH WIND       PRES   REMARKS
OAKLAND*       MOCLDY     7 N/A N/A W12G18    30.17S HAZE    WCI  -9
CUMBERLAND*    CLOUDY    18   3  53 CALM      30.39S

$$

VAZ025>031-310500-
SHENANDOAH VALLEY

CITY           SKY/WX    TMP DP  RH WIND       PRES   REMARKS
WINCHESTER*    CLEAR     21   3  45 NW17G33   30.27S WCI   7
FRONT ROYAL*   FAIR      21   7  53 NW6       30.27S
LURAY*         FAIR      23   9  54 CALM      30.26S
NEW MARKET*    FAIR      17   7  65 CALM      30.27S
STAUNTON*      CLEAR     23   6  48 N8        30.27S WCI  13
WAYNESBORO*    FAIR      20   4  50 W6        30.23R

$$

WVZ021-048>050-054>055-310500-
EASTERN WEST VIRGINIA PANHANDLE

CITY           SKY/WX    TMP DP  RH WIND       PRES   REMARKS
MARTINSBURG    PTCLDY    19   3  49 NW16      30.30R WCI   4
PETERSBURG*    PTCLDY    20   4  49 NW10G16   30.34S WCI   9

$$

VAZ036>039-050-310500-
CENTRAL FOOTHILLS

CITY           SKY/WX    TMP DP  RH WIND       PRES   REMARKS
CHARLOTTESVILL CLEAR     25   4  40 NW5       30.25S
CULPEPER*      CLEAR     25   7  46 N6G17     30.27R
ORANGE*        CLEAR     27   9  46 NW7       30.27R
GORDONSVILLE*  FAIR      26   3  37 CALM      30.25R
WARRENTON*     FAIR      24  11  60 N18G24    30.28R WCI   9

$$

VAZ055>057-310500-
NORTH AND CENTRAL PIEDMONT

CITY           SKY/WX    TMP DP  RH WIND       PRES   REMARKS
FREDERICKSBRG* CLEAR     26   7  45 NW13G25   30.27S WCI  15
STAFFORD*      CLEAR     23   4  45 NW14G29   30.31S WCI  10

$$

NCZ024-NYZ072-PAZ021-071-VAZ022-071-310500-
OTHER REGIONAL OBSERVATIONS

CITY           SKY/WX    TMP DP  RH WIND       PRES   REMARKS
NEW YORK CITY  CLEAR     20   4  50 NW15G36   30.02S WCI   6
PHILADELPHIA   CLEAR     23   3  42 NW22G33   30.14R WCI   8
PITTSBURGH     PTCLDY    12   5  73 W5        30.37F
ROANOKE        CLEAR     25   6  44 NW17G26   30.31R WCI  12
RICHMOND       CLEAR     28   7  41 NW15      30.26R WCI  16
RALEIGH        FAIR      31   6  35 VRB5      30.31R

$$

ANZ530>537-310500-
MARINE OBSERVATIONS

STATION/POSITION TIME  TEMP    WIND        PRES
                       AIR SEA DIR/SP/G
                 (UTC) (F)     (DEG/KT/KT) (MB)
THOMAS PT LIGHT  0400   24 36  310/ 19/ 23 1023.9R
BALT KEY BRIDGE  0400   23     290/ 25/ 31 1022.8S
COVE POINT       0400   24     330/ 21/ 30 1022.9R
LEWISETTA        0400   25 35  320/ 24/ 30 1024.0R
SOLOMONS ISLAND  0400      37                N/A
PINEY POINT      0400          340/ 31/ 36   N/A

$$




USA.gov is the U.S. government's official web portal to all federal, state and local government web resources and services.